Hourly Data Report for October 03, 2017

All times are specified in Local Standard Time (LST). Add 1 hour to adjust for Daylight Saving Time where and when it is observed.

GRETNA (AUT)
MANITOBA

49°01'51.004" N
97°33'36.003" W
252.60 m
5021220
71441
WGN

Download Data

Hourly Data (October 2017)
Hourly Data Report for October 3, 2017
Temp Definition
°C
Dew Point Temp Definition
°C
Rel Hum Definition
%
Wind Dir Definition
10's deg

Wind Spd Definition
km/h
Visibility Definition
km
Stn Press Definition
kPa
Hmdx Definition


Wind Chill Definition


Weather Definition


TIME
00:00 5.2 2.5 83 20 5   98.26     LegendNANA
01:00 3.5 1.9 89 16 7   98.27     LegendNANA
02:00 4.0 2.4 89 23 4   98.29     LegendNANA
03:00 3.8 2.5 92 26 5   98.33     LegendNANA
04:00 3.6 2.3 91 26 8   98.33     LegendNANA
05:00 6.0 3.9 86 24 11   98.41     LegendNANA
06:00 5.6 3.9 89 27 7   98.41     LegendNANA
07:00 6.6 4.2 85 26 12   98.54     LegendNANA
08:00 7.3 4.3 81 26 11   98.63     LegendNANA
09:00 7.8 4.9 82 34 7   98.67     LegendNANA
10:00 8.4 5.5 82 19 8   98.75     LegendNANA
11:00 9.3 5.9 80 19 11   98.79     LegendNANA
12:00 10.8 5.8 71 19 17   98.81     LegendNANA
13:00 13.1 4.2 55 19 21   98.78     LegendNANA
14:00 14.0 4.2 52 20 19   98.76     LegendNANA
15:00 14.2 1.6 42 21 20   98.80     LegendNANA
16:00 14.0 1.7 43 19 10   98.84     LegendNANA
17:00 13.1 1.2 44 26 23   98.89     LegendNANA
18:00 11.8 2.1 52 26 11   98.93     LegendNANA
19:00 10.6 3.2 60 26 10   98.98     LegendNANA
20:00 11.0 2.7 57 26 12   99.02     LegendNANA
21:00 9.3 3.5 67 30 7   99.02     LegendNANA
22:00 9.1 3.3 67 26 12   99.05     LegendNANA
23:00 8.2 3.3 71 26 10   99.06     LegendNANA

Notes on Data Quality.

Legend

  • E = Estimated
  • M = Missing
  • NA = Not Available
  • ‡ = Partner data that is not subject to review by the National Climate Archives
Date modified: